Regional Weather Roundup
Issued by NWS

Home | Current Version | Previous Version | Graphics & Text | Print | Product List | Glossary On
Versions: 1 2 3 4 5 6 7 8 9 10 11 12 13 14 15 16 17 18 19 20 21 22 23 24 25 26 27 28 29 30 31 32 33 34 35 36 37 38 39 40 41 42 43 44 45 46 47 48 49 50
000
ASUS43 KLOT 040208
RWRIL

ILLINOIS REGIONAL WEATHER ROUNDUP
NATIONAL WEATHER SERVICE CHICAGO/ROMEOVILLE IL
900 PM CDT FRI JUL 03 2015

NOTE: "FAIR" INDICATES FEW OR NO CLOUDS BELOW 12,000 FEET WITH NO
SIGNIFICANT WEATHER AND/OR OBSTRUCTIONS TO VISIBILITY.

* THESE STATIONS ARE NOT UNDER NWS QUALITY CONTROL. THEY ALSO MAY NOT
  REPORT WEATHER SUCH AS PRECIPITATION OR FOG.

ILZ001-002-007-009-015-016-024-040300-
NORTHWEST ILLINOIS

CITY           SKY/WX    TMP DP  RH WIND       PRES   REMARKS
MOLINE         CLEAR     66  61  84 CALM      29.92S
STERLING*      CLEAR     66  59  77 CALM      29.93S
SAVANNA*       CLEAR     67  58  72 CALM      29.92F
$$

ILZ003-004-008-010-011-017-018-040300-
NORTH CENTRAL ILLINOIS

CITY           SKY/WX    TMP DP  RH WIND       PRES   REMARKS
ROCKFORD       CLEAR     69  60  73 W3        29.93S
FREEPORT*      CLEAR     64  57  77 NW3       29.94F
ROCHELLE*      CLEAR     67  61  81 CALM      29.93S
DE KALB*       CLEAR     65  57  77 W3        29.93S
PERU*          CLEAR     70  59  68 NW3       29.92S
$$

ILZ005-006-012>014-019>023-040300-
NORTHEAST ILLINOIS

CITY           SKY/WX    TMP DP  RH WIND       PRES   REMARKS
CHICAGO-OHARE  MOCLDY    66  52  60 SE5       29.92R
CHICAGO-MIDWAY MOCLDY    69  54  58 E6        29.92S
AURORA         CLEAR     67  61  81 W6        29.92S
LANSING*       CLEAR     65  52  63 CALM      29.93S
JOLIET*        CLEAR     69  57  66 CALM      29.92S
WAUKEGAN       CLEAR     59  55  87 CALM      29.91S
DUPAGE AIRPORT CLEAR     68  54  60 E5        29.91S
KANKAKEE*      LGT RAIN  66  60  81 CALM      29.92S
WHEELING       CLEAR     66  53  63 CALM      29.93S
MORRIS*        CLEAR     67  62  82 NW3       29.89F
ROMEOVILLE*    CLEAR     67  53  61 E6        29.92S
NORTHERLY ISL    N/A     64  57  78 SE1         N/A
$$

LMZ740>746-040300-
SOUTHERN LAKE MICHIGAN

STATION/POSITION SKY/WX   TEMP    WIND        PRES    VSBY  WAVE
                          AIR SEA DIR/SP/G                  HT/PER
                          (F)     (DEG/KT/KT) (MB)    (MI)  (FT/S)
HARRISON CRIB              63      80/  7/  8   N/A
BURNHAM HARBOR             63      CALM  /  2   N/A
CALUMET HARBOR             64      40/  3/  4   N/A
BURNS HARBOR               65      80/  8/ 10 1013.9F
MICHIGAN CITY              63      50/  5/  5   N/A
MICHIGAN CITY 6N           63 64  130/  4/  4   N/A           1
ST. JOSEPH                 62 62                N/A           1
$$

ILZ025>027-034>036-040-047-049-050-058-095>099-040300-
WEST-CENTRAL ILLINOIS

CITY           SKY/WX    TMP DP  RH WIND       PRES   REMARKS
QUINCY         CLEAR     70  62  76 N6        29.92S
GALESBURG*     CLEAR     66  61  85 CALM      29.93S
MACOMB*        CLEAR     68  64  85 N5        29.95R
JACKSONVILLE*  CLEAR     71  67  87 N3        29.91S
PITTSFIELD*    CLEAR     71  66  84 CALM      29.93R
$$

ILZ028>032-037-038-041>044-048-051>054-059>061-040300-
CENTRAL ILLINOIS

CITY           SKY/WX    TMP DP  RH WIND       PRES   REMARKS
PONTIAC        CLEAR     67  62  84 CALM      29.93R
BLOOMINGTON    CLEAR     71  62  73 NE3       29.94R
DECATUR        CLEAR     67  63  87 CALM      29.92R
PEORIA         CLEAR     71  61  70 N3        29.92R
LACON*         CLEAR     65  60  83 CALM      29.92R
LINCOLN*       PTCLDY    70  64  81 CALM      29.92R
SPRINGFIELD    CLEAR     71  65  81 CALM      29.92R
TAYLORVILLE    CLEAR     70  64  83 NE5       29.92R
$$

ILZ033-039-045-046-055>057-062-063-040300-
EAST-CENTRAL ILLINOIS

CITY           SKY/WX    TMP DP  RH WIND       PRES   REMARKS
CHAMPAIGN      CLEAR     65  62  90 CALM      29.92R
DANVILLE*      CLEAR     65  63  93 N3        29.89S
RANTOUL*       CLEAR     69  63  81 CALM      29.92R
MATTOON        CLEAR     69  65  86 NE3       29.90R
PARIS*         CLEAR     69  65  86 CALM      29.91S
$$

ILZ079-100>102-040300-
SOUTHWEST ILLINOIS

CITY           SKY/WX    TMP DP  RH WIND       PRES   REMARKS
BELLEVILLE     CLEAR     73  70  88 N3        29.89R
CAHOKIA*       CLEAR     75  67  76 N3        29.89S
SPARTA*        PTCLDY    73  70  89 CALM      29.90S
$$

ILZ064>066-069>071-074>076-080>082-084>086-088>090-092>094-040300-
SOUTH-CENTRAL ILLINOIS

CITY           SKY/WX    TMP DP  RH WIND       PRES   REMARKS
CARBONDALE     MOCLDY    75  67  76 NE6       29.88S
CAIRO*         MOCLDY    73  71  94 CALM      29.87F
EFFINGHAM*     CLEAR     71  63  74 CALM      29.92R
MARION         PTCLDY    73  68  83 NE5       29.89S
MT. VERNON     CLEAR     70  64  83 CALM      29.90R
CENTRALIA*     CLEAR     70  67  89 N3        29.90S
SALEM*         PTCLDY    74  69  84 N5        29.90S
METROPOLIS*    LGT RAIN  73  73 100 CALM      29.88S
$$

ILZ067-068-072-073-078-083-087-091-040300-
SOUTHEAST ILLINOIS

CITY           SKY/WX    TMP DP  RH WIND       PRES   REMARKS
LAWRENCEVILLE  PTCLDY    71  69  93 E5        29.89R
FLORA*         CLEAR     70  66  87 N5        29.90R
FAIRFIELD*     PTCLDY    71  70  98 CALM      29.88R FOG
HARRISBURG*    PTCLDY    73  69  87 CALM      29.89S
ROBINSON*      CLEAR     70  66  87 NE5       29.90R
CARMI*         CLEAR     72  65  78 CALM      29.88R
$$

ABBREVIATIONS USED IN REMARKS
   TC - TEMPERATURE IN CELSIUS
  WCI - WIND CHILL INDEX
   HX - HEAT INDEX
  VSB - VISIBILITY
$$




USA.gov is the U.S. government's official web portal to all federal, state and local government web resources and services.